Location: Barcelona
(41.3830°N, 2.1830°E)
Time: 13:50:44
(UTC+01:00)

ISS - Pass Details

Date: 15 December 2017
Orbit: 402 x 406 km, 51.6° (Epoch: 16 December)

Event Time Altitude Azimuth Distance (km) Brightness Sun altitude
Rises 19:30:01 0° 294° (WNW) 2,327 0.9 -23.0°
Reaches altitude 10° 19:32:26 10° 277° (W) 1,462 0.0 -23.5°
Maximum altitude 19:34:57 20° 227° (SW) 986 -1.3 -23.9°
Enters shadow 19:36:11 17° 196° (SSW) 1,117 -1.3 -24.2°
